TimeEDT,TemperatureF,Dew PointF,Humidity,Sea Level PressureIn,VisibilityMPH,Wind Direction,Wind SpeedMPH,Gust SpeedMPH,PrecipitationIn,Events,Conditions,WindDirDegrees,DateUTC
12:54 AM,39.9,30.0,68,30.40,10.0,SSW,8.1,-,N/A,,Clear,210,2013-04-16 04:54:00
1:54 AM,37.9,32.0,79,30.39,10.0,SSW,9.2,-,N/A,,Clear,210,2013-04-16 05:54:00
2:54 AM,37.0,32.0,82,30.38,10.0,SW,9.2,-,N/A,,Clear,220,2013-04-16 06:54:00
3:54 AM,37.0,32.0,82,30.39,10.0,SW,6.9,-,N/A,,Clear,220,2013-04-16 07:54:00
4:54 AM,37.0,34.0,89,30.38,10.0,SSW,10.4,-,N/A,,Clear,210,2013-04-16 08:54:00
5:54 AM,37.9,35.1,89,30.38,10.0,SSW,10.4,-,N/A,,Clear,210,2013-04-16 09:54:00
6:54 AM,39.0,35.1,86,30.38,10.0,SSW,13.8,-,N/A,,Partly Cloudy,210,2013-04-16 10:54:00
7:54 AM,42.8,33.8,70,30.35,10.0,SSW,11.5,-,N/A,,Clear,200,2013-04-16 11:54:00
8:54 AM,46.9,37.0,68,30.37,10.0,SSW,11.5,-,N/A,,Partly Cloudy,210,2013-04-16 12:54:00
9:54 AM,50.0,37.9,63,30.36,10.0,South,11.5,-,N/A,,Overcast,180,2013-04-16 13:54:00
10:54 AM,53.1,37.9,57,30.36,10.0,SW,16.1,-,N/A,,Mostly Cloudy,220,2013-04-16 14:54:00
11:54 AM,57.0,39.9,53,30.32,10.0,SW,15.0,23.0,N/A,,Clear,220,2013-04-16 15:54:00
12:54 PM,60.1,39.9,47,30.26,10.0,SSW,19.6,31.1,N/A,,Clear,200,2013-04-16 16:54:00
1:54 PM,63.0,41.0,45,30.25,10.0,SSW,18.4,27.6,N/A,,Clear,210,2013-04-16 17:54:00
2:54 PM,61.0,39.9,46,30.23,10.0,SSW,15.0,39.1,N/A,,Mostly Cloudy,200,2013-04-16 18:54:00
3:54 PM,59.0,42.1,53,30.20,10.0,SSW,21.9,36.8,0.00,,Mostly Cloudy,210,2013-04-16 19:54:00
4:54 PM,53.1,46.9,80,30.17,10.0,SSW,16.1,24.2,0.01,,Mostly Cloudy,200,2013-04-16 20:54:00
5:54 PM,54.0,46.0,75,30.16,10.0,SSW,24.2,29.9,0.00,,Scattered Clouds,200,2013-04-16 21:54:00
6:15 PM,54.0,46.0,75,30.14,10.0,SSW,16.1,-,N/A,,Mostly Cloudy,210,2013-04-16 22:15:00
6:54 PM,53.1,46.0,77,30.14,10.0,SSW,20.7,27.6,N/A,,Overcast,210,2013-04-16 22:54:00
7:54 PM,53.1,46.9,80,30.14,10.0,SSW,15.0,27.6,N/A,,Overcast,210,2013-04-16 23:54:00
8:22 PM,53.1,46.9,80,30.13,10.0,SSW,19.6,25.3,N/A,,Overcast,210,2013-04-17 00:22:00
8:54 PM,53.1,48.9,86,30.13,10.0,SSW,18.4,26.5,0.00,,Overcast,210,2013-04-17 00:54:00
9:54 PM,53.1,48.9,86,30.11,10.0,SW,17.3,31.1,0.01,,Overcast,220,2013-04-17 01:54:00
10:15 PM,53.1,48.9,86,30.09,10.0,SW,19.6,29.9,N/A,,Overcast,220,2013-04-17 02:15:00
10:54 PM,54.0,48.9,83,30.09,10.0,SW,23.0,29.9,N/A,,Mostly Cloudy,220,2013-04-17 02:54:00
11:04 PM,54.0,48.9,83,30.08,10.0,SW,24.2,31.1,N/A,,Scattered Clouds,230,2013-04-17 03:04:00
11:54 PM,54.0,50.0,86,30.09,10.0,SW,17.3,29.9,N/A,,Overcast,230,2013-04-17 03:54:00